Regional Weather Roundup
Issued by NWS

Home | Current Version | Previous Version | Text Only | Print | Product List | Glossary On
Versions: 1 2 3 4 5 6 7 8 9 10 11 12 13 14 15 16 17 18 19 20 21 22 23 24 25 26 27 28 29 30 31 32 33 34 35 36 37 38 39 40 41 42 43 44 45 46 47 48 49 50
000
ASUS44 KFWD 071215
RWRTX
NORTH TEXAS HOURLY WEATHER ROUNDUP
NATIONAL WEATHER SERVICE FORT WORTH TX
700 AM CDT TUE JUL 07 2015

NOTE: "FAIR" INDICATES FEW OR NO CLOUDS BELOW 12,000 FEET WITH NO
SIGNIFICANT WEATHER AND/OR OBSTRUCTIONS TO VISIBILITY.

TXZ118-119-071300-
DALLAS/FORT WORTH METROPLEX

CITY           SKY/WX    TMP DP  RH WIND       PRES   REMARKS
DFW AIRPORT    CLOUDY    80  73  79 S14       29.96R
6HR MIN TEMP:  80; 6HR MAX TEMP:  83;

DALLAS LOVE    MOCLDY    80  72  76 S15G21    29.97R
6HR MIN TEMP:  80; 6HR MAX TEMP:  83;

FTW MEACHAM    CLOUDY    79  73  82 S16G23    29.95S
6HR MIN TEMP:  79; 6HR MAX TEMP:  83;

DAL-EXECUTIVE  CLOUDY    78  73  84 S9G21     29.97R
6HR MIN TEMP:  78; 6HR MAX TEMP:  80;

FTW-ALLIANCE   CLOUDY    79  72  79 S12G18    29.96R
6HR MIN TEMP:  78; 6HR MAX TEMP:  82; 6HR PCP: TRACE;

FTW-NAS-JRB    MOCLDY    79  74  84 S9        29.96S
6HR MIN TEMP:  79; 6HR MAX TEMP:  83;

FTW-SPINKS     CLOUDY    79  72  78 S10G20    29.98R HAZE
ARLINGTON      CLOUDY    79  72  79 S13       29.96S
6HR MIN TEMP:  79; 6HR MAX TEMP:  82;

GRAND PRAIRIE  CLEAR     79  73  83 S10G22    29.98S
ADDISON        MOCLDY    79  72  78 S15G21    29.99R
MESQUITE       CLEAR     77  73  88 S12G20      N/A
LANCASTER      CLOUDY    77  72  84 S10       29.99R
6HR MIN TEMP:  77; 6HR MAX TEMP:  79;

$$

TXZ091>094-102>105-117-120-121-131>134-071300-
NORTH CENTRAL TEXAS

CITY           SKY/WX    TMP DP  RH WIND       PRES   REMARKS
SHRMAN/DENISON CLOUDY    78  75  90 S10       29.97S
6HR MIN TEMP:  76; 6HR MAX TEMP:  82; 6HR PCP:  0.19;

GAINESVILLE    CLOUDY    77  72  83 S10       29.98S
6HR MIN TEMP:  77; 6HR MAX TEMP:  81;

BRIDGEPORT     CLOUDY    75  75 100 S5        29.98R
6HR MIN TEMP:  75; 6HR MAX TEMP:  82; 6HR PCP:  0.12;

DECATUR        MOCLDY    76  73  88 S9        29.97S
6HR MIN TEMP:  76; 6HR MAX TEMP:  81; 6HR PCP:  0.01;

DENTON         CLOUDY    78  73  84 S9        29.96R
6HR MIN TEMP:  78; 6HR MAX TEMP:  82;

MCKINNEY       CLOUDY    79  73  82 S10       29.98R
6HR MIN TEMP:  79; 6HR MAX TEMP:  82;

GREENVILLE     CLOUDY    79  72  78 S13       29.99R
ROCKWALL       MOCLDY    78  74  88 S17       29.97R
6HR MIN TEMP:  78; 6HR MAX TEMP:  80;

TERRELL        CLOUDY    78  74  87 S9        29.99R
6HR MIN TEMP:  78; 6HR MAX TEMP:  80;

WAXAHACHIE     CLOUDY    76  75  96 S9        29.99R FOG
6HR MIN TEMP:  76; 6HR MAX TEMP:  78;

CLEBURNE       CLOUDY    77  77 100 SE13      29.98S
GRANBURY         N/A     80  72  77 SE9       29.97S
6HR MIN TEMP:  80; 6HR MAX TEMP:  83;

$$

TXZ083>090-098>101-113>116-127>130-139>142-154-155-071300-
WESTERN NORTH TEXAS

CITY           SKY/WX    TMP DP  RH WIND       PRES   REMARKS
WICHITA FALLS  CLOUDY    76  70  82 MISG      29.93R
6HR MIN TEMP:  75; 6HR MAX TEMP:  82; 6HR PCP: TRACE;

WF-KICKAPOO    CLOUDY    78  72  82 W8        29.94S
6HR MIN TEMP:  78; 6HR MAX TEMP:  83;

VERNON         CLOUDY    74  68  80 CALM      29.96S
6HR MIN TEMP:  74; 6HR MAX TEMP:  89; 6HR PCP:  0.01;

ABILENE        TSTM      69  68  96 W7        29.97F FOG
6HR MIN TEMP:  69; 6HR MAX TEMP:  82; 6HR PCP:  4.44;

ABILENE-DYESS  TSTM      68  68 100 CALM      29.97R
                                      6HR PCP:  2.06;

BRECKENRIDGE   CLOUDY    76  75  97 CALM      29.94F
6HR MIN TEMP:  75; 6HR MAX TEMP:  83; 6HR PCP:  0.06;

GRAHAM         RAIN      76  73  88 S6        29.94S
6HR MIN TEMP:  76; 6HR MAX TEMP:  82;

MINERAL WELLS  CLOUDY    77  72  84 SE7       29.95R
6HR MIN TEMP:  77; 6HR MAX TEMP:  80;

STEPHENVILLE   CLOUDY    76  71  83 S8        29.99S
6HR MIN TEMP:  76; 6HR MAX TEMP:  79;

COMANCHE       CLOUDY    76  72  86 S10G17    29.96S
6HR MIN TEMP:  76; 6HR MAX TEMP:  78;

BROWNWOOD      CLOUDY    77  72  83 S12       29.95F
COLEMAN        CLOUDY    75  73  91 S8        29.96S
6HR MIN TEMP:  75; 6HR MAX TEMP:  80; 6HR PCP:  0.02;

BRADY          CLOUDY    77  72  83 N10       29.97S
$$

TXZ143>147-156>162-174-175-071300-
CENTRAL TEXAS

CITY           SKY/WX    TMP DP  RH WIND       PRES   REMARKS
WACO           CLOUDY    78  74  87 S12       29.98R
6HR MIN TEMP:  78; 6HR MAX TEMP:  80;

WACO-TSTC      PTCLDY    77  75  94 S8        29.98
WACO-MCGREGOR  CLOUDY    77  72  83 S9G18     29.99S
6HR MIN TEMP:  77; 6HR MAX TEMP:  79;

HILLSBORO      CLOUDY    76  72  86 S9        29.98S HAZE
6HR MIN TEMP:  76; 6HR MAX TEMP:  79;

CORSICANA      CLOUDY    79  75  87 S10       30.01R
6HR MIN TEMP:  79; 6HR MAX TEMP:  80;

MEXIA          CLOUDY    77  75  95 SE17      29.99S
6HR MIN TEMP:  76; 6HR MAX TEMP:  77;

HEARNE         CLOUDY    78  76  94 SE6       30.01S
6HR MIN TEMP:  76; 6HR MAX TEMP:  78;

CAMERON        CLOUDY    79  76  90 S8        29.99S
6HR MIN TEMP:  78; 6HR MAX TEMP:  79;

TEMPLE         CLOUDY    77  72  83 SE15      29.98S
6HR MIN TEMP:  75; 6HR MAX TEMP:  79;

KILLEEN        CLOUDY    76  73  87 S10       29.98R
6HR MIN TEMP:  76; 6HR MAX TEMP:  78;

KILLEEN-SKYLRK CLOUDY    77  70  78 SE13      29.97F
6HR MIN TEMP:  77; 6HR MAX TEMP:  79;

FORT HOOD      FOG       76  73  88 S9        29.97S VSB 1/4
6HR MIN TEMP:  76; 6HR MAX TEMP:  78;

GATESVILLE     CLOUDY    79  72  78 S7        30.00S
HAMILTON       CLOUDY    76  73  90 S12G18    29.98S
6HR MIN TEMP:  76; 6HR MAX TEMP:  78;

LAMPASAS       CLOUDY    78  74  86 S9        29.98S
6HR MIN TEMP:  78; 6HR MAX TEMP:  78;

$$

TXZ095>097-106>112-122>126-135>138-148>153-164>167-071300-
EAST TEXAS

CITY           SKY/WX    TMP DP  RH WIND       PRES   REMARKS
PARIS          CLOUDY    77  73  88 S8        29.99S
6HR MIN TEMP:  75; 6HR MAX TEMP:  79;

SULPHUR SPRNGS CLOUDY    79  74  84 S12       30.01R
6HR MIN TEMP:  78; 6HR MAX TEMP:  81;

MOUNT PLEASANT MOCLDY    77  74  91 S9        30.02R
6HR MIN TEMP:  76; 6HR MAX TEMP:  79;

GILMER         CLOUDY    75  73  92 S7        30.01F
6HR MIN TEMP:  75; 6HR MAX TEMP:  78;

MINEOLA        CLOUDY    79  75  89 S7        30.02R
TYLER          CLOUDY    78  74  87 S13       30.01S
6HR MIN TEMP:  77; 6HR MAX TEMP:  79;

LONGVIEW       MOCLDY    78  74  87 S9        30.02R
6HR MIN TEMP:  77; 6HR MAX TEMP:  79;

MARSHALL         N/A     76  74  92 S5        30.05S
6HR MIN TEMP:  76; 6HR MAX TEMP:  78;

ATHENS         CLOUDY    77  73  88 S6        30.00R
PALESTINE      CLOUDY    77  75  94 SE7       30.03S
JACKSONVILLE   CLOUDY    76  74  94 S7        30.06S
HENDERSON      CLOUDY    75  74  97 S6        30.05R
6HR MIN TEMP:  75; 6HR MAX TEMP:  77;

CENTER         FAIR      74  74  98 SE3       30.05R FOG
6HR MIN TEMP:  74; 6HR MAX TEMP:  76;

NACOGDOCHES    CLOUDY   N/A N/A N/A S5        30.03S
LUFKIN         CLOUDY    78  74  87 SE6       30.04S FOG
6HR MIN TEMP:  77; 6HR MAX TEMP:  79;

$$

SUPPLEMENTAL OBSERVATIONS (CENTRAL)

CITY           SKY/WX    TMP DP  RH WIND       PRES   REMARKS
LAKE TEXOMA      N/A     79  73  83 S3          N/A
PAT MAYSE LAKE   N/A     79  75  89 SE15        N/A
GREENVILLE       N/A     79  72  78 S8G16       N/A
CEDAR HILL       N/A     79  72  78 S12G20      N/A
ATHENS           N/A     79  73  83 S9G17       N/A
LAKE LIMESTONE   N/A     79  75  89 S7          N/A
MCGREGOR         N/A     77  73  88 S12         N/A
TEMPLE           N/A     77  73  88 S9          N/A



USA.gov is the U.S. government's official web portal to all federal, state and local government web resources and services.